CZ-6A DEB

Satellite information

Favourite Embed

Satellite Type and Status

DEBRISIN ORBIT

Key statistics

Satellite CZ-6A DEB at a glance.

Uptime

1070

Days in orbit

Revolutions

≈ 14.8

Per day

Orbit

SSO

Sun Synchronous Orbit

Inclination

98.6

Latest

Satellite identification and parameters

Extended collection of information and parameters for CZ-6A DEB.

Object identification

Identified? True

Debris? True

Object name: CZ-6A DEB

International designator: 2022-151BY

Object number (NORAD): 54329

Object ID (CCSDS): 54329

Country: PEOPLES REPUBLIC OF CHINA (PRC)

Current information (Y/N): Y

RCS size: SMALL

Orbital parameters

Period: 97.42 minutes

Inclination: 98.6476 deg

SMA: 7013.36 km

Apoapsis: 709.644 km

Periapsis: 560.806 km

RAAN: 3.7631 deg

Eccentricy: 0.010611

Argument of periapsis: 168.7388 deg

Mean anomaly: 191.6232 deg

Mean motion: 14.78133152 rev/day

Mean motion (dot): 0.00024094 rev/day2

B* drag term: 0.0030283 1/REarth

Two-line elements (TLE)

Creation date: Oct. 16, 2025, 12:06 a.m.

Reference frame: TEME

Reference center: EARTH

Epoch: Oct. 15, 2025, 11:41 a.m. UTC

TLE line 0: 0 CZ-6A DEB

TLE line 1: 1 54329U 22151BY 25288.48714286 .00024094 00000-0 30283-2 0 9996

TLE line 2: 2 54329 98.6476 3.7631 0106110 168.7388 191.6232 14.78133152155443

Live tracking on map

Real-time ground track for satellite CZ-6A DEB.

In-orbit conjunctions

A list of the most updated potential collisions computed for object CZ-6A DEB.

Target Orbit TCA Probability of collision Miss distance Type
START 1 LEO 2025-07-20 20:51:40 0.0001256659 182.0 (m) PAYLOAD

Associated space launch

Chinese satellite reported for atmospheric/ocean/environmental/spatial parameter research purposes, details TBD.

CZ-6A DEB was lifted into orbit during the mission ‘Long March 6A | Yunhai 3’, on board a Long March 6A space rocket.

The launch took place on Nov. 11, 2022, 10:52 p.m. from Launch Complex 9A.

For more information about the launch, click the button.

Launch to space Long March 6A | Yunhai 3
Long March 6A | Yunhai 3

Agency: N/A

Status: Launch Successful

Launch date: Nov. 11, 2022, 10:52 p.m. UTC

Rocket: Long March 6A

Launch pad: Launch Complex 9A

Location: Taiyuan Satellite Launch Center, People's Republic of China

...

Latest news about this satellite

There are no fresh news available about this satellite. Check back as we update our databases every day.


Newsletter sign-up

Weekly statistics, charts and insights to help you stay on top of the space industry.